EW3182 Weather Reports


Display with metric or nautical units.
time (UTC)temp
F
wind
direction
speed
MPH
gust
MPH
rain 1hr
in
rain 24hr
in
rain mn
in
humidity
%
barometer
mb
20260906051504 84 227 0.0 0.0 0.00 0.00 0.00 68 1010.7
20260906050005 84 225 0.0 0.0 0.00 0.00 0.00 67 1010.7
20260906044600 85 255 0.0 0.0 0.00 0.00 0.00 66 1010.8
20260906043102 85 253 0.0 0.0 0.00 0.00 0.00 66 1010.7
20260906041600 86 256 0.0 1.0 0.00 0.00 0.00 64 1010.4
20260906040123 86 278 0.0 2.0 0.00 0.00 0.00 64 1010.4
20260906034558 86 288 0.0 0.0 0.00 0.00 0.00 63 1010.6
20260906033108 87 288 0.0 2.0 0.00 0.00 0.00 62 1010.5
20260906031601 87 224 0.0 2.0 0.00 0.00 0.00 60 1010.7
20260906030057 88 264 0.0 3.0 0.00 0.00 0.00 59 1010.7
20260906024610 88 166 0.0 5.0 0.00 0.00 0.00 58 1010.5
20260906023058 88 274 1.0 6.0 0.00 0.00 0.00 58 1010.4
20260906021556 89 298 0.0 3.0 0.00 0.00 0.00 58 1010.0
20260906020057 89 122 1.0 6.0 0.00 0.00 0.00 57 1009.8
20260906014606 90 192 1.0 4.0 0.00 0.00 0.00 56 1009.6
20260906013053 91 225 1.0 9.0 0.00 0.00 0.00 54 1009.2
20260906011557 92 104 2.0 7.0 0.00 0.00 0.00 50 1008.9
20260906010053 94 131 0.0 3.0 0.00 0.00 0.00 44 1008.6
20260906004553 94 107 0.0 2.0 0.00 0.00 0.00 43 1008.6
20260906003051 95 82 0.0 3.0 0.00 0.00 0.00 42 1008.5
20260906001550 95 105 0.0 2.0 0.00 0.00 0.00 41 1008.6
20260906000051 96 81 0.0 2.0 0.00 0.00 0.00 41 1008.4
20260905234606 96 136 0.0 4.0 0.00 0.00 0.00 39 1008.3
20260905233050 96 245 0.0 3.0 0.00 0.00 0.00 39 1008.3
20260905231554 97 162 0.0 3.0 0.00 0.00 0.00 39 1008.4
20260905230110 96 271 0.0 2.0 0.00 0.00 0.00 40 1008.2
20260905224547 97 167 0.0 2.0 0.00 0.00 0.00 39 1008.3
20260905223046 97 105 0.0 2.0 0.00 0.00 0.00 40 1008.2
20260905221546 97 243 0.0 2.0 0.00 0.00 0.00 40 1008.4
20260905220043 98 103 0.0 2.0 0.00 0.00 0.00 39 1008.5
20260905214541 99 105 0.0 3.0 0.00 0.00 0.00 38 1008.7
20260905213039 101 179 0.0 4.0 0.00 0.00 0.00 38 1008.8
20260905211538 100 193 0.0 3.0 0.00 0.00 0.00 38 1009.0
20260905210035 99 290 0.0 1.0 0.00 0.00 0.00 39 1009.2
20260905204534 97 238 0.0 1.0 0.00 0.00 0.00 42 1009.4
20260905203031 96 212 0.0 0.0 0.00 0.00 0.00 41 1009.6
20260905201529 97 125 0.0 3.0 0.00 0.00 0.00 40 1009.8
20260905200026 99 260 0.0 3.0 0.00 0.00 0.00 39 1010.0
20260905194523 99 236 0.0 4.0 0.00 0.00 0.00 39 1010.3
20260905193021 98 239 1.0 6.0 0.00 0.00 0.00 38 1010.5
20260905191520 99 152 0.0 6.0 0.00 0.00 0.00 40 1010.7
20260905190017 98 150 0.0 4.0 0.00 0.00 0.00 42 1011.0
20260905184518 97 94 0.0 5.0 0.00 0.00 0.00 42 1011.4
20260905183014 98 246 0.0 1.0 0.00 0.00 0.00 41 1011.6
20260905181514 98 70 0.0 3.0 0.00 0.00 0.00 43 1011.8
20260905180010 97 231 0.0 3.0 0.00 0.00 0.00 45 1012.1
20260905174509 96 134 0.0 6.0 0.00 0.00 0.00 46 1012.3
20260905173006 96 114 0.0 4.0 0.00 0.00 0.00 44 1012.5
20260905171502 94 256 0.0 5.0 0.00 0.00 0.00 49 1012.5
20260905170001 94 212 0.0 5.0 0.00 0.00 0.00 48 1012.6
20260905164600 94 163 0.0 4.0 0.00 0.00 0.00 49 1012.8
20260905163059 94 167 0.0 2.0 0.00 0.00 0.00 49 1012.8
20260905161553 93 113 0.0 0.0 0.00 0.00 0.00 52 1012.8
20260905160050 92 248 1.0 3.0 0.00 0.00 0.00 53 1012.8
20260905154602 91 245 1.0 3.0 0.00 0.00 0.00 55 1012.8
20260905153048 91 232 0.0 2.0 0.00 0.00 0.00 56 1012.8
20260905151547 92 243 0.0 3.0 0.00 0.00 0.00 55 1012.8
20260905150043 90 242 0.0 1.0 0.00 0.00 0.00 58 1012.7
20260905144541 89 262 0.0 2.0 0.00 0.00 0.00 60 1012.6
20260905143039 87 211 0.0 3.0 0.00 0.00 0.00 64 1012.6
20260905141535 87 248 0.0 2.0 0.00 0.00 0.00 67 1012.8
20260905140035 85 241 0.0 1.0 0.00 0.00 0.00 70 1012.7
20260905134542 83 227 0.0 1.0 0.00 0.00 0.00 72 1012.6
20260905133030 82 221 0.0 1.0 0.00 0.00 0.00 74 1012.5
20260905131533 82 267 0.0 0.0 0.00 0.00 0.00 74 1012.5
20260905130027 79 269 0.0 0.0 0.00 0.00 0.00 79 1012.3
20260905124525 77 268 0.0 0.0 0.00 0.00 0.00 79 1012.1
20260905123021 0 0.0 0.0 0.00 0.00 0.00 1011.9
20260905121518 0 0.0 0.0 0.00 0.00 0.00 1011.7
20260905120023 0 0.0 0.0 0.00 0.00 0.00 1011.7
20260905114510 0 0.0 0.0 0.00 0.00 0.00 1011.8
20260905113004 0 0.0 0.0 0.00 0.00 0.00 1011.5
20260905111559 0 0.0 0.0 0.00 0.00 0.00 1011.7
20260905110055 0 0.0 0.0 0.00 0.00 0.00 1011.7
20260905104552 0 0.0 0.0 0.00 0.00 0.00 1011.7
20260905103048 0 0.0 0.0 0.00 0.00 0.00 1011.9
20260905101542 0 0.0 0.0 0.00 0.00 0.00 1011.7
20260905100040 0 0.0 0.0 0.00 0.00 0.00 1011.8
20260905094534 0 0.0 0.0 0.00 0.00 0.00 1011.7
20260905093028 0 0.0 0.0 0.00 0.00 0.00 1011.5
20260905091524 0 0.0 0.0 0.00 0.00 0.00 1011.4
20260905090030 0 0.0 0.0 0.00 0.00 0.00 1011.3
20260905084518 81 259 0.0 1.0 0.00 0.00 0.00 74 1011.4
20260905083017 81 218 0.0 1.0 0.00 0.00 0.00 73 1011.3
20260905081516 81 278 0.0 1.0 0.00 0.00 0.00 73 1011.3
20260905080018 82 280 0.0 2.0 0.00 0.00 0.00 72 1011.2
20260905074513 82 269 0.0 1.0 0.00 0.00 0.00 71 1011.1
20260905073012 82 283 0.0 1.0 0.00 0.00 0.00 71 1011.3
20260905071509 82 286 0.0 1.0 0.00 0.00 0.00 70 1011.4
20260905070006 83 203 0.0 3.0 0.00 0.00 0.00 68 1011.5
20260905064505 83 212 0.0 2.0 0.00 0.00 0.00 67 1011.5
20260905063002 84 284 0.0 3.0 0.00 0.00 0.00 66 1011.6
20260905061613 84 183 0.0 5.0 0.00 0.00 0.00 65 1011.6
20260905061501 84 271 1.0 5.0 0.00 0.00 0.00 65 1011.6
20260905060101 85 179 0.0 2.0 0.00 0.00 0.00 65 1011.5
20260905054556 85 245 0.0 3.0 0.00 0.00 0.00 64 1011.4
20260905053053 85 166 0.0 2.0 0.00 0.00 0.00 63 1011.3